Retour au catalogue

MOLNIYA 1-75

ActifCommunicationsHEO
NORAD 19807·PAYLOAD·🇷🇺 Russia

Lancé Feb 15, 1989 depuis Baikonur Cosmodrome

Loading…

Prochains Passages (prochaines 24 heures)

TLE

VieillissantSource: Space-Track

Époque: Aug 31, 2026, 00:09 UTC

1 19807U 89014A   26243.00667433 -.00000201  00000-0  00000-0 0  9997
2 19807  63.8050 131.3278 6870140 255.2837  24.9310  2.00550399274782

Suivez MOLNIYA 1-75 en temps réel avec AllMySat

Download on the App Store